Regional Weather Roundup
Issued by NWS

Home | Current Version | Previous Version | Graphics & Text | Print | Product List | Glossary On
Versions: 1 2 3 4 5 6 7 8 9 10 11 12 13 14 15 16 17 18 19 20 21 22 23 24 25 26 27 28 29 30 31 32 33 34 35 36 37 38 39 40 41 42 43 44 45 46 47 48 49 50
000
ASUS43 KTOP 251508
RWRKS

WEATHER ROUNDUP FOR KANSAS
NATIONAL WEATHER SERVICE GOODLAND KS
900 AM CST SUN FEB 25 2018

NOTE:  "FAIR" INDICATES FEW OR NO CLOUDS BELOW 12,000 FEET WITH NO
SIGNIFICANT WEATHER AND/OR OBSTRUCTIONS TO VISIBILITY.

KSZ001>006-013>018-027>032-041>047-251600-
NORTHWEST KANSAS

CITY           SKY/WX    TMP DP  RH WIND       PRES   REMARKS
GOODLAND       SUNNY     27  12  53 W15       29.94R WCI  15
HAYS           PTSUNNY   26  18  71 W7        30.03R
HILL CITY      CLOUDY    25  16  68 W7        30.00R
RUSSELL        CLOUDY    27  19  72 W8        30.01R
$$

KSZ061>065-074>080-084>089-251600-
SOUTHWEST KANSAS

CITY           SKY/WX    TMP DP  RH WIND       PRES   REMARKS
DODGE CITY     CLOUDY    34  12  40 SE8       29.99R
ELKHART        MOSUNNY   27  18  69 NW6       29.96R
GARDEN CITY    CLOUDY    25  11  55 W3        29.98R
GREAT BEND     CLOUDY    28  19  69 SW3       30.02R
LIBERAL        SUNNY     27  16  63 N8        29.98R
PRATT          MOSUNNY   32  17  53 E5        30.02R
$$

KSZ066>073-081>083-090>101-251600-
SOUTHEAST KANSAS

CITY           SKY/WX    TMP DP  RH WIND       PRES   REMARKS
CHANUTE        SUNNY     34  31  88 S6        30.11R
COFFEYVILLE    SUNNY     33  33 100 CALM      30.10R FOG
HUTCHINSON     MOSUNNY   28  23  81 CALM      30.05R
MEDICINE LODGE   N/A     36  25  64 E9        30.01S
NEWTON         MOSUNNY   31  26  82 S6        30.06R
PARSONS        SUNNY     33  33 100 CALM      30.11R
WICHITA INTL   MOSUNNY   31  28  89 CALM      30.06R
WICHITA JABRA  SUNNY     34  29  82 S8        30.06R
WICHITA MCCONL SUNNY     32  30  92 CALM      30.06R
WINFIELD       SUNNY     33  32  96 E7        30.08R
$$

KSZ007>012-019>026-033>040-048>060-102>105-251600-
NORTHEAST KANSAS

CITY           SKY/WX    TMP DP  RH WIND       PRES   REMARKS
CONCORDIA      CLOUDY    28  20  71 SW9       30.00R
EMPORIA        SUNNY     35  26  69 S6        30.07R
LAWRENCE       SUNNY     32  25  75 SW5       30.06R
MANHATTAN      SUNNY     31  23  72 SW8       30.05R
MARYSVILLE     SUNNY     30  23  74 S5        30.00R
OLATHE IND     SUNNY     31  25  78 SW7       30.06R
OLATHE EXE     SUNNY     32  25  75 W5        30.05R
SALINA         MOSUNNY   31  22  69 SW7       30.05R
TOPEKA BILLARD SUNNY     32  24  72 S3        30.05R
TOPEKA FORBES  SUNNY     31  24  75 S3        30.04R
$$



USA.gov is the U.S. government's official web portal to all federal, state and local government web resources and services.